Regional Weather Roundup
Issued by NWS Charleston, WV

Home | Current Version | Previous Version | Graphics & Text | Print | Product List | Glossary On
Versions: 1 2 3 4 5 6 7 8 9 10 11 12 13 14 15 16 17 18 19 20 21 22 23 24 25
000
ASUS41 KRLX 170810
RWRRLX
West Virginia Regional Weather Roundup
National Weather Service Charleston WV
300 AM EST SAT FEB 17 2018

Note: "fair" indicates few or no clouds below 12,000 feet with no
significant weather and/or obstructions to visibility.

WVZ003-170900-
Northern Panhandle of West Virginia

CITY           SKY/WX    TMP DP  RH WIND       PRES   REMARKS
WHEELING       CLOUDY    29  18  63 CALM      30.27F
$$

WVZ009-170900-
Northwest West Virginia

CITY           SKY/WX    TMP DP  RH WIND       PRES   REMARKS
PARKERSBURG    CLOUDY    31  26  82 CALM      30.32S
$$

WVZ006-170900-
Western West Virginia

CITY           SKY/WX    TMP DP  RH WIND       PRES   REMARKS
HUNTINGTON     CLOUDY    36  29  75 N5        30.27S
$$

WVZ015-170900-
West Central West Virginia

CITY           SKY/WX    TMP DP  RH WIND       PRES   REMARKS
CHARLESTON     CLOUDY    37  32  82 N3        30.26S
$$

WVZ022-031-170900-
North Central West Virginia

CITY           SKY/WX    TMP DP  RH WIND       PRES   REMARKS
CLARKSBURG     CLOUDY    33  24  69 N7        30.27S
MORGANTOWN     CLOUDY    30  20  66 NE3       30.28S
$$

WVZ025-035-042-045-170900-
Southern West Virginia

CITY           SKY/WX    TMP DP  RH WIND       PRES   REMARKS
BECKLEY          N/A     33  31  92 CALM      30.19S
LOGAN          CLOUDY    37  36  93 CALM      30.22S
BLUEFIELD      CLOUDY    34  30  85 CALM      30.19R
LEWISBURG        N/A     34  28  78 CALM      30.20F
$$

WVZ047-170900-
Northern Mountains of West Virginia

CITY           SKY/WX    TMP DP  RH WIND       PRES   REMARKS
ELKINS         MOCLDY    31  27  85 CALM      30.23S
$$

WVZ052-170900-
Eastern Panhandle of West Virginia

CITY           SKY/WX    TMP DP  RH WIND       PRES   REMARKS
MARTINSBURG      N/A     30  21  69 N5        30.28R
PETERSBURG       N/A     31  27  84 CALM      30.27S
$$




USA.gov is the U.S. government's official web portal to all federal, state and local government web resources and services.